Terminal Aerodrome Forecast
Issued by NWS Quad Cities IA IL

Home | Current Version | Previous Version | Text Only | Print | Product List | Glossary On
Versions: 1 2 3 4 5 6 7 8 9 10 11 12 13 14 15 16 17 18 19 20
000
FTUS43 KDVN 010800 AAA
TAFMLI
TAF AMD
KMLI 010849Z 0109/0206 11004KT 4SM BR SCT040
      TEMPO 0109/0112 1 1/2SM BR BKN003
     FM011500 23007KT P6SM BKN030
     FM012000 27012KT P6SM SCT030 BKN120
     FM020200 29007KT P6SM SKC=

USA.gov is the U.S. government's official web portal to all federal, state and local government web resources and services.